Time,TemperatureF,DewpointF,PressureIn,WindDirection,WindDirectionDegrees,WindSpeedMPH,WindSpeedGustMPH,Humidity,HourlyPrecipIn,Conditions,Clouds,dailyrainin,SolarRadiationWatts/m^2,SoftwareType,DateUTC
2013-02-11 00:00:00,28.8,19.9,29.87,East,94,0.0,4.0,69,0.00,,---,0.00,0.00,VWS V14.01,2013-02-10 23:00:00,
2013-02-11 00:10:00,28.9,20.0,29.87,ENE,77,2.0,5.0,69,0.00,,---,0.00,0.00,VWS V14.01,2013-02-10 23:10:00,
2013-02-11 00:15:00,28.8,19.9,29.86,ESE,105,0.0,7.0,69,0.00,,---,0.00,0.00,VWS V14.01,2013-02-10 23:15:00,
2013-02-11 00:20:00,28.8,19.9,29.86,East,80,4.0,4.0,69,0.00,,---,0.00,0.00,VWS V14.01,2013-02-10 23:20:00,
2013-02-11 00:25:00,28.8,19.9,29.86,East,79,4.0,7.0,69,0.00,,---,0.00,0.00,VWS V14.01,2013-02-10 23:25:00,
2013-02-11 00:35:00,28.7,19.8,29.86,ESE,102,4.0,5.0,69,0.00,,---,0.00,0.00,VWS V14.01,2013-02-10 23:35:00,
2013-02-11 00:40:00,28.7,19.8,29.86,East,82,8.0,9.0,69,0.00,,---,0.00,0.00,VWS V14.01,2013-02-10 23:40:00,
2013-02-11 00:45:00,28.6,19.7,29.85,ESE,107,6.0,9.0,69,0.00,,---,0.00,0.00,VWS V14.01,2013-02-10 23:45:00,
2013-02-11 00:55:00,28.6,19.7,29.85,East,95,4.0,4.0,69,0.00,,---,0.00,0.00,VWS V14.01,2013-02-10 23:55:00,
2013-02-11 01:00:00,28.5,19.6,29.85,East,85,2.0,4.0,69,0.00,,---,0.00,0.00,VWS V14.01,2013-02-11 00:00:00,
2013-02-11 01:05:00,28.4,19.9,29.85,East,82,2.0,5.0,70,0.00,,---,0.00,0.00,VWS V14.01,2013-02-11 00:05:00,
2013-02-11 01:10:00,28.3,19.8,29.85,East,101,4.0,4.0,70,0.00,,---,0.00,0.00,VWS V14.01,2013-02-11 00:10:00,
2013-02-11 01:15:00,28.1,19.6,29.85,SE,130,5.0,6.0,70,0.00,,---,0.00,0.00,VWS V14.01,2013-02-11 00:15:00,
2013-02-11 01:20:00,28.0,19.8,29.85,East,98,8.0,8.0,71,0.00,,---,0.00,0.00,VWS V14.01,2013-02-11 00:20:00,
2013-02-11 01:30:00,27.8,20.0,29.85,East,98,2.0,5.0,72,0.00,,---,0.00,0.00,VWS V14.01,2013-02-11 00:30:00,
2013-02-11 01:35:00,27.7,19.9,29.85,East,97,3.0,3.0,72,0.00,,---,0.00,0.00,VWS V14.01,2013-02-11 00:35:00,
2013-02-11 01:45:00,27.6,20.1,29.85,East,98,0.0,3.0,73,0.00,,---,0.00,0.00,VWS V14.01,2013-02-11 00:45:00,
2013-02-11 01:50:00,27.5,20.0,29.85,East,82,4.0,4.0,73,0.00,,---,0.00,0.00,VWS V14.01,2013-02-11 00:50:00,
2013-02-11 01:55:00,27.4,20.2,29.85,East,84,2.0,3.0,74,0.00,,---,0.00,0.00,VWS V14.01,2013-02-11 00:55:00,
2013-02-11 02:00:00,27.2,20.0,29.84,East,86,0.0,5.0,74,0.00,,---,0.00,0.00,VWS V14.01,2013-02-11 01:00:00,
2013-02-11 02:10:00,27.0,20.1,29.84,East,82,0.0,3.0,75,0.00,,---,0.00,0.00,VWS V14.01,2013-02-11 01:10:00,
2013-02-11 02:15:00,26.9,20.0,29.84,East,82,0.0,2.0,75,0.00,,---,0.00,0.00,VWS V14.01,2013-02-11 01:15:00,
2013-02-11 02:20:00,26.7,19.9,29.84,East,82,0.0,2.0,75,0.00,,---,0.00,0.00,VWS V14.01,2013-02-11 01:20:00,
2013-02-11 02:25:00,26.6,20.1,29.84,East,83,1.0,3.0,76,0.00,,---,0.00,0.00,VWS V14.01,2013-02-11 01:25:00,
2013-02-11 02:35:00,26.4,19.9,29.84,East,83,2.0,2.0,76,0.00,,---,0.00,0.00,VWS V14.01,2013-02-11 01:35:00,
2013-02-11 02:40:00,26.2,20.0,29.84,East,83,0.0,2.0,77,0.00,,---,0.00,0.00,VWS V14.01,2013-02-11 01:40:00,
2013-02-11 02:50:00,26.1,19.9,29.83,East,83,0.0,0.0,77,0.00,,---,0.00,0.00,VWS V14.01,2013-02-11 01:50:00,
2013-02-11 02:55:00,26.0,19.8,29.83,East,83,0.0,1.0,77,0.00,,---,0.00,0.00,VWS V14.01,2013-02-11 01:55:00,
2013-02-11 03:05:00,25.8,19.9,29.83,East,83,0.0,0.0,78,0.00,,---,0.00,0.00,VWS V14.01,2013-02-11 02:05:00,
2013-02-11 03:10:00,25.8,19.9,29.83,East,83,1.0,2.0,78,0.00,,---,0.00,0.00,VWS V14.01,2013-02-11 02:10:00,
2013-02-11 03:15:00,25.7,19.8,29.82,East,83,2.0,2.0,78,0.00,,---,0.00,0.00,VWS V14.01,2013-02-11 02:15:00,
2013-02-11 03:20:00,25.6,20.0,29.82,East,83,0.0,0.0,79,0.00,,---,0.00,0.00,VWS V14.01,2013-02-11 02:20:00,
2013-02-11 03:25:00,25.5,19.9,29.82,East,83,0.0,0.0,79,0.00,,---,0.00,0.00,VWS V14.01,2013-02-11 02:25:00,
2013-02-11 03:30:00,25.4,19.8,29.82,East,83,0.0,1.0,79,0.00,,---,0.00,0.00,VWS V14.01,2013-02-11 02:30:00,
2013-02-11 03:35:00,25.3,19.7,29.82,East,83,2.0,2.0,79,0.00,,---,0.00,0.00,VWS V14.01,2013-02-11 02:35:00,
2013-02-11 03:40:00,25.2,19.6,29.82,East,83,0.0,0.0,79,0.00,,---,0.00,0.00,VWS V14.01,2013-02-11 02:40:00,
2013-02-11 03:45:00,25.1,19.8,29.82,East,83,0.0,2.0,80,0.00,,---,0.00,0.00,VWS V14.01,2013-02-11 02:45:00,
2013-02-11 03:55:00,24.9,19.6,29.82,East,83,0.0,2.0,80,0.00,,---,0.00,0.00,VWS V14.01,2013-02-11 02:55:00,
2013-02-11 04:00:00,24.9,19.6,29.81,East,83,0.0,0.0,80,0.00,,---,0.00,0.00,VWS V14.01,2013-02-11 03:00:00,
2013-02-11 04:10:00,24.8,19.8,29.81,East,83,0.0,2.0,81,0.00,,---,0.00,0.00,VWS V14.01,2013-02-11 03:10:00,
2013-02-11 04:15:00,24.7,19.7,29.81,East,83,0.0,0.0,81,0.00,,---,0.00,0.00,VWS V14.01,2013-02-11 03:15:00,
2013-02-11 04:20:00,24.7,19.7,29.81,East,83,0.0,0.0,81,0.00,,---,0.00,0.00,VWS V14.01,2013-02-11 03:20:00,
2013-02-11 04:25:00,24.6,19.6,29.81,East,83,0.0,2.0,81,0.00,,---,0.00,0.00,VWS V14.01,2013-02-11 03:25:00,
2013-02-11 04:35:00,24.5,19.5,29.80,East,83,1.0,1.0,81,0.00,,---,0.00,0.00,VWS V14.01,2013-02-11 03:35:00,
2013-02-11 04:45:00,24.4,19.7,29.80,East,83,0.0,0.0,82,0.00,,---,0.00,0.00,VWS V14.01,2013-02-11 03:45:00,
2013-02-11 04:55:00,24.3,19.6,29.80,East,83,0.0,2.0,82,0.00,,---,0.00,0.00,VWS V14.01,2013-02-11 03:55:00,
2013-02-11 05:00:00,24.2,19.5,29.79,East,82,1.0,3.0,82,0.00,,---,0.00,0.00,VWS V14.01,2013-02-11 04:00:00,
2013-02-11 05:10:00,24.2,19.5,29.79,East,83,0.0,0.0,82,0.00,,---,0.00,0.00,VWS V14.01,2013-02-11 04:10:00,
2013-02-11 05:15:00,24.1,19.4,29.79,East,83,1.0,1.0,82,0.00,,---,0.00,0.00,VWS V14.01,2013-02-11 04:15:00,
2013-02-11 05:25:00,24.0,19.3,29.79,East,83,0.0,0.0,82,0.00,,---,0.00,0.00,VWS V14.01,2013-02-11 04:25:00,
2013-02-11 05:30:00,23.9,19.5,29.79,East,83,0.0,0.0,83,0.00,,---,0.00,0.00,VWS V14.01,2013-02-11 04:30:00,
2013-02-11 05:40:00,23.8,19.4,29.79,East,83,0.0,0.0,83,0.00,,---,0.00,0.00,VWS V14.01,2013-02-11 04:40:00,
2013-02-11 05:45:00,23.8,19.4,29.79,East,83,1.0,1.0,83,0.00,,---,0.00,0.00,VWS V14.01,2013-02-11 04:45:00,
2013-02-11 05:50:00,23.8,19.4,29.79,East,83,3.0,3.0,83,0.00,,---,0.00,0.00,VWS V14.01,2013-02-11 04:50:00,
2013-02-11 05:55:00,23.7,19.3,29.79,East,83,1.0,2.0,83,0.00,,---,0.00,0.00,VWS V14.01,2013-02-11 04:55:00,
2013-02-11 06:00:00,23.6,19.2,29.78,East,83,2.0,3.0,83,0.00,,---,0.00,0.00,VWS V14.01,2013-02-11 05:00:00,
2013-02-11 06:05:00,23.6,19.5,29.78,East,83,0.0,0.0,84,0.00,,---,0.00,0.00,VWS V14.01,2013-02-11 05:05:00,
2013-02-11 06:10:00,23.5,19.4,29.78,East,83,0.0,0.0,84,0.00,,---,0.00,0.00,VWS V14.01,2013-02-11 05:10:00,
2013-02-11 06:15:00,23.5,19.4,29.79,East,83,0.0,1.0,84,0.00,,---,0.00,0.00,VWS V14.01,2013-02-11 05:15:00,
2013-02-11 06:20:00,23.4,19.3,29.79,East,83,1.0,2.0,84,0.00,,---,0.00,0.00,VWS V14.01,2013-02-11 05:20:00,
2013-02-11 06:25:00,23.4,19.3,29.79,East,83,0.0,2.0,84,0.00,,---,0.00,0.00,VWS V14.01,2013-02-11 05:25:00,
2013-02-11 06:30:00,23.4,19.3,29.78,East,83,1.0,2.0,84,0.00,,---,0.00,0.00,VWS V14.01,2013-02-11 05:30:00,
2013-02-11 06:40:00,23.4,19.3,29.78,East,83,0.0,2.0,84,0.00,,---,0.00,0.00,VWS V14.01,2013-02-11 05:40:00,
2013-02-11 06:45:00,23.4,19.3,29.78,East,83,0.0,0.0,84,0.00,,---,0.00,0.00,VWS V14.01,2013-02-11 05:45:00,
2013-02-11 06:50:00,23.3,19.5,29.78,East,83,0.0,0.0,85,0.00,,---,0.00,0.00,VWS V14.01,2013-02-11 05:50:00,
2013-02-11 07:00:00,23.3,19.5,29.78,East,83,0.0,2.0,85,0.00,,---,0.00,0.00,VWS V14.01,2013-02-11 06:00:00,
2013-02-11 07:05:00,23.3,19.5,29.78,East,84,0.0,5.0,85,0.00,,---,0.00,0.00,VWS V14.01,2013-02-11 06:05:00,
2013-02-11 07:10:00,23.2,19.4,29.78,East,84,1.0,3.0,85,0.00,,---,0.00,0.00,VWS V14.01,2013-02-11 06:10:00,
2013-02-11 07:15:00,23.2,19.4,29.78,East,84,3.0,3.0,85,0.00,,---,0.00,0.00,VWS V14.01,2013-02-11 06:15:00,
2013-02-11 07:25:00,23.1,19.5,29.78,East,84,0.0,2.0,86,0.00,,---,0.00,0.00,VWS V14.01,2013-02-11 06:25:00,
2013-02-11 07:30:00,23.2,19.6,29.78,East,84,1.0,3.0,86,0.00,,---,0.00,5.00,VWS V14.01,2013-02-11 06:30:00,
2013-02-11 07:35:00,23.3,19.7,29.78,East,84,2.0,2.0,86,0.00,,---,0.00,7.00,VWS V14.01,2013-02-11 06:35:00,
2013-02-11 07:45:00,23.4,19.8,29.78,East,84,0.0,1.0,86,0.00,,---,0.00,9.00,VWS V14.01,2013-02-11 06:45:00,
2013-02-11 07:55:00,23.7,20.1,29.78,East,84,0.0,2.0,86,0.00,,---,0.00,11.00,VWS V14.01,2013-02-11 06:55:00,
2013-02-11 08:00:00,23.8,20.5,29.78,East,84,0.0,0.0,87,0.00,,---,0.00,12.00,VWS V14.01,2013-02-11 07:00:00,
2013-02-11 08:10:00,24.0,20.4,29.78,East,84,1.0,4.0,86,0.00,,---,0.00,19.00,VWS V14.01,2013-02-11 07:10:00,
2013-02-11 08:15:00,24.2,20.9,29.78,East,84,1.0,3.0,87,0.00,,---,0.00,26.00,VWS V14.01,2013-02-11 07:15:00,
2013-02-11 08:25:00,24.5,21.2,29.78,ENE,77,0.0,4.0,87,0.00,,---,0.00,39.00,VWS V14.01,2013-02-11 07:25:00,
2013-02-11 08:30:00,24.7,21.4,29.77,ENE,75,1.0,3.0,87,0.00,,---,0.00,44.00,VWS V14.01,2013-02-11 07:30:00,
2013-02-11 08:35:00,24.9,21.6,29.77,East,92,2.0,4.0,87,0.00,,---,0.00,40.00,VWS V14.01,2013-02-11 07:35:00,
2013-02-11 08:40:00,25.1,21.8,29.77,East,94,1.0,6.0,87,0.00,,---,0.00,33.00,VWS V14.01,2013-02-11 07:40:00,
2013-02-11 08:45:00,25.3,22.0,29.77,East,81,0.0,2.0,87,0.00,,---,0.00,32.00,VWS V14.01,2013-02-11 07:45:00,
2013-02-11 08:50:00,25.5,22.2,29.77,ESE,102,2.0,6.0,87,0.00,,---,0.00,30.00,VWS V14.01,2013-02-11 07:50:00,
2013-02-11 09:00:00,25.9,22.3,29.77,ENE,78,4.0,4.0,86,0.00,,---,0.00,35.00,VWS V14.01,2013-02-11 08:00:00,
2013-02-11 09:05:00,26.0,22.4,29.77,East,84,3.0,7.0,86,0.00,,---,0.00,40.00,VWS V14.01,2013-02-11 08:05:00,
2013-02-11 09:15:00,26.3,22.7,29.76,East,80,5.0,5.0,86,0.00,,---,0.00,49.00,VWS V14.01,2013-02-11 08:15:00,
2013-02-11 09:25:00,26.5,22.6,29.76,East,88,1.0,6.0,85,0.00,,---,0.00,53.00,VWS V14.01,2013-02-11 08:25:00,
2013-02-11 09:30:00,26.6,22.7,29.76,ESE,102,4.0,10.0,85,0.00,,---,0.00,56.00,VWS V14.01,2013-02-11 08:30:00,
2013-02-11 09:35:00,26.8,22.9,29.76,East,94,6.0,7.0,85,0.00,,---,0.00,56.00,VWS V14.01,2013-02-11 08:35:00,
2013-02-11 09:40:00,26.8,22.9,29.76,East,99,6.0,8.0,85,0.00,,---,0.00,54.00,VWS V14.01,2013-02-11 08:40:00,
2013-02-11 09:45:00,26.9,23.0,29.76,East,88,5.0,6.0,85,0.00,,---,0.00,49.00,VWS V14.01,2013-02-11 08:45:00,
2013-02-11 09:50:00,27.0,23.1,29.76,ESE,110,4.0,7.0,85,0.00,,---,0.00,46.00,VWS V14.01,2013-02-11 08:50:00,
2013-02-11 09:55:00,27.0,23.1,29.76,ENE,69,2.0,8.0,85,0.00,,---,0.00,49.00,VWS V14.01,2013-02-11 08:55:00,
2013-02-11 10:00:00,27.1,22.9,29.76,ENE,74,5.0,10.0,84,0.00,,---,0.00,47.00,VWS V14.01,2013-02-11 09:00:00,
2013-02-11 10:10:00,27.2,23.0,29.76,East,87,11.0,12.0,84,0.00,,---,0.00,47.00,VWS V14.01,2013-02-11 09:10:00,
2013-02-11 10:20:00,27.2,23.0,29.76,East,96,3.0,9.0,84,0.00,,---,0.00,44.00,VWS V14.01,2013-02-11 09:20:00,
2013-02-11 10:25:00,27.4,23.2,29.76,ESE,118,1.0,6.0,84,0.00,,---,0.00,51.00,VWS V14.01,2013-02-11 09:25:00,
2013-02-11 10:30:00,27.4,23.2,29.76,East,94,5.0,6.0,84,0.00,,---,0.00,60.00,VWS V14.01,2013-02-11 09:30:00,
2013-02-11 10:35:00,27.6,23.1,29.76,East,89,4.0,4.0,83,0.00,,---,0.00,56.00,VWS V14.01,2013-02-11 09:35:00,
2013-02-11 10:40:00,27.7,23.2,29.76,ESE,107,4.0,6.0,83,0.00,,---,0.00,56.00,VWS V14.01,2013-02-11 09:40:00,
2013-02-11 10:45:00,27.8,23.3,29.76,SE,142,6.0,11.0,83,0.00,,---,0.00,51.00,VWS V14.01,2013-02-11 09:45:00,
2013-02-11 10:55:00,27.9,23.1,29.76,ESE,109,1.0,10.0,82,0.00,,---,0.00,56.00,VWS V14.01,2013-02-11 09:55:00,
2013-02-11 11:00:00,28.0,23.2,29.76,East,92,7.0,11.0,82,0.00,,---,0.00,67.00,VWS V14.01,2013-02-11 10:00:00,
2013-02-11 11:05:00,28.0,23.2,29.76,ESE,111,10.0,10.0,82,0.00,,---,0.00,56.00,VWS V14.01,2013-02-11 10:05:00,
2013-02-11 11:10:00,28.0,22.9,29.76,East,98,11.0,11.0,81,0.00,,---,0.00,46.00,VWS V14.01,2013-02-11 10:10:00,
2013-02-11 11:20:00,28.2,23.1,29.76,ESE,107,0.0,4.0,81,0.00,,---,0.00,40.00,VWS V14.01,2013-02-11 10:20:00,
2013-02-11 11:25:00,28.2,23.1,29.76,ENE,67,9.0,9.0,81,0.00,,---,0.00,40.00,VWS V14.01,2013-02-11 10:25:00,
2013-02-11 11:30:00,28.2,23.1,29.76,ESE,106,4.0,10.0,81,0.00,,---,0.00,47.00,VWS V14.01,2013-02-11 10:30:00,
2013-02-11 11:35:00,28.2,23.1,29.76,ESE,113,2.0,7.0,81,0.00,,---,0.00,44.00,VWS V14.01,2013-02-11 10:35:00,
2013-02-11 11:45:00,28.3,22.9,29.75,ENE,70,0.0,6.0,80,0.00,,---,0.00,44.00,VWS V14.01,2013-02-11 10:45:00,
2013-02-11 11:50:00,28.4,23.0,29.75,SE,128,2.0,7.0,80,0.00,,---,0.00,46.00,VWS V14.01,2013-02-11 10:50:00,
2013-02-11 12:00:00,28.5,22.5,29.75,SE,140,6.0,9.0,78,0.00,,---,0.00,51.00,VWS V14.01,2013-02-11 11:00:00,
2013-02-11 12:05:00,28.7,22.4,29.75,ESE,109,4.0,10.0,77,0.00,,---,0.00,54.00,VWS V14.01,2013-02-11 11:05:00,
2013-02-11 12:10:00,28.7,22.1,29.75,ESE,121,4.0,10.0,76,0.00,,---,0.00,47.00,VWS V14.01,2013-02-11 11:10:00,
2013-02-11 12:15:00,28.8,22.2,29.75,ESE,110,0.0,2.0,76,0.00,,---,0.00,53.00,VWS V14.01,2013-02-11 11:15:00,
2013-02-11 12:20:00,29.0,22.4,29.75,SE,138,7.0,7.0,76,0.00,,---,0.00,56.00,VWS V14.01,2013-02-11 11:20:00,
2013-02-11 12:25:00,29.1,22.5,29.75,SE,129,5.0,5.0,76,0.00,,---,0.00,63.00,VWS V14.01,2013-02-11 11:25:00,
2013-02-11 12:30:00,29.2,22.9,29.75,East,95,4.0,5.0,77,0.00,,---,0.00,63.00,VWS V14.01,2013-02-11 11:30:00,
2013-02-11 12:35:00,29.3,23.3,29.75,East,98,5.0,9.0,78,0.00,,---,0.00,58.00,VWS V14.01,2013-02-11 11:35:00,
2013-02-11 12:45:00,29.2,23.2,29.75,ENE,63,4.0,12.0,78,0.00,,---,0.00,53.00,VWS V14.01,2013-02-11 11:45:00,
2013-02-11 12:50:00,29.2,23.5,29.75,ESE,103,6.0,9.0,79,0.00,,---,0.00,53.00,VWS V14.01,2013-02-11 11:50:00,
2013-02-11 12:55:00,29.0,23.3,29.75,East,96,3.0,10.0,79,0.00,,---,0.00,51.00,VWS V14.01,2013-02-11 11:55:00,
2013-02-11 13:00:00,29.0,23.3,29.75,ENE,77,4.0,11.0,79,0.00,,---,0.00,47.00,VWS V14.01,2013-02-11 12:00:00,
2013-02-11 13:05:00,29.0,23.3,29.75,East,92,3.0,4.0,79,0.00,,---,0.00,39.00,VWS V14.01,2013-02-11 12:05:00,
2013-02-11 13:10:00,29.0,23.3,29.75,SE,128,5.0,10.0,79,0.00,,---,0.00,44.00,VWS V14.01,2013-02-11 12:10:00,
2013-02-11 13:15:00,29.1,23.4,29.74,East,101,5.0,8.0,79,0.00,,---,0.00,44.00,VWS V14.01,2013-02-11 12:15:00,
2013-02-11 13:20:00,29.1,23.4,29.74,ENE,75,4.0,5.0,79,0.00,,---,0.00,46.00,VWS V14.01,2013-02-11 12:20:00,
2013-02-11 13:30:00,29.2,23.5,29.74,SE,130,4.0,9.0,79,0.00,,---,0.00,56.00,VWS V14.01,2013-02-11 12:30:00,
2013-02-11 13:35:00,29.0,23.0,29.74,ESE,113,3.0,8.0,78,0.00,,---,0.00,58.00,VWS V14.01,2013-02-11 12:35:00,
2013-02-11 13:40:00,29.0,22.4,29.74,ESE,121,2.0,8.0,76,0.00,,---,0.00,56.00,VWS V14.01,2013-02-11 12:40:00,
2013-02-11 13:50:00,29.2,22.3,29.74,ESE,114,7.0,11.0,75,0.00,,---,0.00,49.00,VWS V14.01,2013-02-11 12:50:00,
2013-02-11 13:55:00,29.2,22.0,29.74,SE,129,6.0,6.0,74,0.00,,---,0.00,44.00,VWS V14.01,2013-02-11 12:55:00,
2013-02-11 14:00:00,29.2,21.6,29.74,SE,134,2.0,11.0,73,0.00,,---,0.00,39.00,VWS V14.01,2013-02-11 13:00:00,
2013-02-11 14:10:00,29.1,21.5,29.74,SE,137,7.0,10.0,73,0.00,,---,0.00,42.00,VWS V14.01,2013-02-11 13:10:00,
2013-02-11 14:20:00,28.9,21.4,29.75,SSE,161,4.0,12.0,73,0.00,,---,0.00,49.00,VWS V14.01,2013-02-11 13:20:00,
2013-02-11 14:25:00,28.8,21.2,29.75,SE,131,1.0,7.0,73,0.00,,---,0.00,49.00,VWS V14.01,2013-02-11 13:25:00,
2013-02-11 14:30:00,28.7,20.8,29.75,SE,130,3.0,11.0,72,0.00,,---,0.00,39.00,VWS V14.01,2013-02-11 13:30:00,
2013-02-11 14:35:00,28.6,21.1,29.75,SE,144,3.0,7.0,73,0.00,,---,0.00,37.00,VWS V14.01,2013-02-11 13:35:00,
2013-02-11 14:40:00,28.5,21.0,29.75,SE,129,11.0,11.0,73,0.00,,---,0.00,35.00,VWS V14.01,2013-02-11 13:40:00,
2013-02-11 14:45:00,28.4,20.9,29.75,SE,144,7.0,10.0,73,0.00,,---,0.00,37.00,VWS V14.01,2013-02-11 13:45:00,
2013-02-11 14:50:00,28.3,20.8,29.75,SE,142,4.0,7.0,73,0.00,,---,0.00,42.00,VWS V14.01,2013-02-11 13:50:00,
2013-02-11 14:55:00,28.4,20.9,29.75,ESE,102,1.0,9.0,73,0.00,,---,0.00,37.00,VWS V14.01,2013-02-11 13:55:00,
2013-02-11 15:05:00,28.4,20.5,29.75,East,98,4.0,9.0,72,0.00,,---,0.00,42.00,VWS V14.01,2013-02-11 14:05:00,
2013-02-11 15:10:00,28.5,20.6,29.75,ESE,107,6.0,11.0,72,0.00,,---,0.00,42.00,VWS V14.01,2013-02-11 14:10:00,
2013-02-11 15:15:00,28.6,20.7,29.75,ESE,104,5.0,9.0,72,0.00,,---,0.00,40.00,VWS V14.01,2013-02-11 14:15:00,
2013-02-11 15:20:00,28.7,20.8,29.75,East,86,3.0,6.0,72,0.00,,---,0.00,33.00,VWS V14.01,2013-02-11 14:20:00,
2013-02-11 15:25:00,28.8,20.9,29.75,ESE,103,1.0,10.0,72,0.00,,---,0.00,33.00,VWS V14.01,2013-02-11 14:25:00,
2013-02-11 15:35:00,28.8,21.2,29.74,ESE,121,3.0,9.0,73,0.00,,---,0.00,28.00,VWS V14.01,2013-02-11 14:35:00,
2013-02-11 15:40:00,28.8,21.2,29.74,East,97,0.0,5.0,73,0.00,,---,0.00,32.00,VWS V14.01,2013-02-11 14:40:00,
2013-02-11 15:50:00,29.0,21.4,29.74,East,96,1.0,8.0,73,0.00,,---,0.00,21.00,VWS V14.01,2013-02-11 14:50:00,
2013-02-11 15:55:00,29.1,21.5,29.74,ENE,68,1.0,7.0,73,0.00,,---,0.00,21.00,VWS V14.01,2013-02-11 14:55:00,
2013-02-11 16:00:00,29.1,21.5,29.74,ESE,106,5.0,6.0,73,0.00,,---,0.00,19.00,VWS V14.01,2013-02-11 15:00:00,
2013-02-11 16:10:00,29.2,21.3,29.74,ESE,106,8.0,10.0,72,0.00,,---,0.00,11.00,VWS V14.01,2013-02-11 15:10:00,
2013-02-11 16:20:00,29.3,21.4,29.74,ESE,113,6.0,13.0,72,0.00,,---,0.00,9.00,VWS V14.01,2013-02-11 15:20:00,
2013-02-11 16:25:00,29.3,23.0,29.74,East,90,3.0,12.0,77,0.00,,---,0.00,7.00,VWS V14.01,2013-02-11 15:25:00,
2013-02-11 16:35:00,29.3,23.0,29.74,ESE,119,4.0,7.0,77,0.00,,---,0.00,0.00,VWS V14.01,2013-02-11 15:35:00,
2013-02-11 16:40:00,29.3,21.1,29.74,ESE,118,11.0,13.0,71,0.00,,---,0.00,0.00,VWS V14.01,2013-02-11 15:40:00,
2013-02-11 16:45:00,29.3,21.1,29.74,East,82,6.0,9.0,71,0.00,,---,0.00,0.00,VWS V14.01,2013-02-11 15:45:00,
2013-02-11 16:50:00,29.2,21.0,29.74,SE,132,5.0,10.0,71,0.00,,---,0.00,0.00,VWS V14.01,2013-02-11 15:50:00,
2013-02-11 17:00:00,29.0,20.5,29.74,SE,133,12.0,15.0,70,0.00,,---,0.00,0.00,VWS V14.01,2013-02-11 16:00:00,
2013-02-11 17:05:00,29.0,20.5,29.74,ESE,114,6.0,7.0,70,0.00,,---,0.00,0.00,VWS V14.01,2013-02-11 16:05:00,
2013-02-11 17:10:00,29.1,20.5,29.74,ESE,106,4.0,8.0,70,0.00,,---,0.00,0.00,VWS V14.01,2013-02-11 16:10:00,
2013-02-11 17:20:00,29.1,20.5,29.74,SE,124,2.0,6.0,70,0.00,,---,0.00,0.00,VWS V14.01,2013-02-11 16:20:00,
2013-02-11 17:25:00,29.1,20.5,29.74,ESE,108,5.0,8.0,70,0.00,,---,0.00,0.00,VWS V14.01,2013-02-11 16:25:00,
2013-02-11 17:30:00,29.2,20.6,29.74,ESE,106,4.0,5.0,70,0.00,,---,0.00,0.00,VWS V14.01,2013-02-11 16:30:00,
2013-02-11 17:40:00,29.2,21.0,29.74,ESE,113,5.0,10.0,71,0.00,,---,0.00,0.00,VWS V14.01,2013-02-11 16:40:00,
2013-02-11 17:45:00,29.2,21.0,29.74,East,101,1.0,5.0,71,0.00,,---,0.00,0.00,VWS V14.01,2013-02-11 16:45:00,
2013-02-11 17:50:00,29.2,21.3,29.74,East,97,4.0,7.0,72,0.00,,---,0.00,0.00,VWS V14.01,2013-02-11 16:50:00,
2013-02-11 17:55:00,29.2,21.3,29.74,ENE,71,4.0,11.0,72,0.00,,---,0.00,0.00,VWS V14.01,2013-02-11 16:55:00,
2013-02-11 18:00:00,29.2,21.6,29.74,ESE,102,6.0,10.0,73,0.00,,---,0.00,0.00,VWS V14.01,2013-02-11 17:00:00,
2013-02-11 18:10:00,29.1,21.9,29.74,ESE,119,5.0,11.0,74,0.00,,---,0.00,0.00,VWS V14.01,2013-02-11 17:10:00,
2013-02-11 18:15:00,29.1,21.9,29.74,East,94,11.0,12.0,74,0.00,,---,0.00,0.00,VWS V14.01,2013-02-11 17:15:00,
2013-02-11 18:25:00,29.1,21.9,29.74,East,96,2.0,4.0,74,0.00,,---,0.00,0.00,VWS V14.01,2013-02-11 17:25:00,
2013-02-11 18:30:00,29.1,21.9,29.74,ESE,103,10.0,10.0,74,0.00,,---,0.00,0.00,VWS V14.01,2013-02-11 17:30:00,
2013-02-11 18:35:00,29.2,22.0,29.74,East,99,6.0,6.0,74,0.00,,---,0.00,0.00,VWS V14.01,2013-02-11 17:35:00,
2013-02-11 18:40:00,29.2,22.0,29.74,East,84,4.0,6.0,74,0.00,,---,0.00,0.00,VWS V14.01,2013-02-11 17:40:00,
2013-02-11 18:45:00,29.2,22.0,29.74,ESE,103,2.0,5.0,74,0.00,,---,0.00,0.00,VWS V14.01,2013-02-11 17:45:00,
2013-02-11 18:50:00,29.2,21.6,29.74,ESE,119,0.0,3.0,73,0.00,,---,0.00,0.00,VWS V14.01,2013-02-11 17:50:00,
2013-02-11 18:55:00,29.3,21.7,29.74,East,100,0.0,5.0,73,0.00,,---,0.00,0.00,VWS V14.01,2013-02-11 17:55:00,
2013-02-11 19:00:00,29.3,21.7,29.73,East,101,4.0,5.0,73,0.00,,---,0.00,0.00,VWS V14.01,2013-02-11 18:00:00,
2013-02-11 19:05:00,29.3,21.7,29.73,ESE,107,4.0,6.0,73,0.00,,---,0.00,0.00,VWS V14.01,2013-02-11 18:05:00,
2013-02-11 19:15:00,29.3,21.7,29.74,ESE,109,0.0,3.0,73,0.00,,---,0.00,0.00,VWS V14.01,2013-02-11 18:15:00,
2013-02-11 19:20:00,29.3,21.7,29.74,ESE,103,5.0,9.0,73,0.00,,---,0.00,0.00,VWS V14.01,2013-02-11 18:20:00,
2013-02-11 19:25:00,29.3,21.7,29.74,ESE,102,2.0,4.0,73,0.00,,---,0.00,0.00,VWS V14.01,2013-02-11 18:25:00,
2013-02-11 19:30:00,29.4,21.8,29.74,ENE,78,5.0,6.0,73,0.00,,---,0.00,0.00,VWS V14.01,2013-02-11 18:30:00,
2013-02-11 19:35:00,29.4,21.8,29.74,ENE,70,7.0,10.0,73,0.00,,---,0.00,0.00,VWS V14.01,2013-02-11 18:35:00,
2013-02-11 19:40:00,29.3,21.7,29.74,SE,130,1.0,13.0,73,0.00,,---,0.00,0.00,VWS V14.01,2013-02-11 18:40:00,
2013-02-11 19:45:00,29.3,21.7,29.74,ENE,57,0.0,5.0,73,0.00,,---,0.00,0.00,VWS V14.01,2013-02-11 18:45:00,
2013-02-11 19:50:00,29.2,21.6,29.74,ESE,103,6.0,9.0,73,0.00,,---,0.00,0.00,VWS V14.01,2013-02-11 18:50:00,
2013-02-11 20:00:00,29.2,21.6,29.74,ENE,75,9.0,11.0,73,0.00,,---,0.00,0.00,VWS V14.01,2013-02-11 19:00:00,
2013-02-11 20:10:00,29.2,21.6,29.74,East,84,4.0,9.0,73,0.00,,---,0.00,0.00,VWS V14.01,2013-02-11 19:10:00,
2013-02-11 20:15:00,29.2,21.6,29.74,ENE,71,5.0,7.0,73,0.00,,---,0.00,0.00,VWS V14.01,2013-02-11 19:15:00,
2013-02-11 20:20:00,29.2,21.6,29.74,ESE,111,4.0,9.0,73,0.00,,---,0.00,0.00,VWS V14.01,2013-02-11 19:20:00,
2013-02-11 20:25:00,29.2,21.6,29.74,East,85,2.0,5.0,73,0.00,,---,0.00,0.00,VWS V14.01,2013-02-11 19:25:00,
2013-02-11 20:30:00,29.2,21.6,29.74,ENE,76,4.0,6.0,73,0.00,,---,0.00,0.00,VWS V14.01,2013-02-11 19:30:00,
2013-02-11 20:35:00,29.2,22.0,29.74,East,101,8.0,8.0,74,0.00,,---,0.00,0.00,VWS V14.01,2013-02-11 19:35:00,
2013-02-11 20:40:00,29.2,21.6,29.74,East,94,8.0,8.0,73,0.00,,---,0.00,0.00,VWS V14.01,2013-02-11 19:40:00,
2013-02-11 20:50:00,29.2,21.6,29.73,ENE,61,6.0,10.0,73,0.00,,---,0.00,0.00,VWS V14.01,2013-02-11 19:50:00,
2013-02-11 20:55:00,29.2,21.6,29.73,East,101,5.0,9.0,73,0.00,,---,0.00,0.00,VWS V14.01,2013-02-11 19:55:00,
2013-02-11 21:00:00,29.2,21.6,29.73,ENE,77,5.0,9.0,73,0.00,,---,0.00,0.00,VWS V14.01,2013-02-11 20:00:00,
2013-02-11 21:05:00,29.1,21.9,29.73,ENE,62,7.0,9.0,74,0.00,,---,0.00,0.00,VWS V14.01,2013-02-11 20:05:00,
2013-02-11 21:10:00,29.1,21.9,29.73,ENE,69,2.0,13.0,74,0.00,,---,0.00,0.00,VWS V14.01,2013-02-11 20:10:00,
2013-02-11 21:15:00,29.1,21.9,29.73,East,98,4.0,10.0,74,0.00,,---,0.00,0.00,VWS V14.01,2013-02-11 20:15:00,
2013-02-11 21:20:00,29.0,21.8,29.73,ENE,71,6.0,7.0,74,0.00,,---,0.00,0.00,VWS V14.01,2013-02-11 20:20:00,
2013-02-11 21:25:00,29.1,21.9,29.73,SE,128,5.0,5.0,74,0.00,,---,0.00,0.00,VWS V14.01,2013-02-11 20:25:00,
2013-02-11 21:30:00,29.1,21.9,29.73,East,79,4.0,11.0,74,0.00,,---,0.00,0.00,VWS V14.01,2013-02-11 20:30:00,
2013-02-11 21:40:00,29.1,21.9,29.73,East,92,5.0,7.0,74,0.00,,---,0.00,0.00,VWS V14.01,2013-02-11 20:40:00,
2013-02-11 21:45:00,29.1,22.2,29.74,East,82,3.0,10.0,75,0.00,,---,0.00,0.00,VWS V14.01,2013-02-11 20:45:00,
2013-02-11 21:50:00,29.1,22.2,29.74,East,97,3.0,11.0,75,0.00,,---,0.00,0.00,VWS V14.01,2013-02-11 20:50:00,
2013-02-11 21:55:00,29.1,22.2,29.74,East,96,3.0,6.0,75,0.00,,---,0.00,0.00,VWS V14.01,2013-02-11 20:55:00,
2013-02-11 22:00:00,29.0,22.4,29.74,ENE,71,5.0,5.0,76,0.00,,---,0.00,0.00,VWS V14.01,2013-02-11 21:00:00,
2013-02-11 22:10:00,29.0,22.7,29.74,ESE,106,7.0,9.0,77,0.00,,---,0.00,0.00,VWS V14.01,2013-02-11 21:10:00,
2013-02-11 22:15:00,29.0,22.7,29.74,ESE,104,4.0,6.0,77,0.00,,---,0.00,0.00,VWS V14.01,2013-02-11 21:15:00,
2013-02-11 22:20:00,28.9,22.6,29.74,East,91,3.0,5.0,77,0.00,,---,0.00,0.00,VWS V14.01,2013-02-11 21:20:00,
2013-02-11 22:25:00,28.9,22.6,29.74,NE,46,1.0,15.0,77,0.00,,---,0.00,0.00,VWS V14.01,2013-02-11 21:25:00,
2013-02-11 22:30:00,28.9,22.6,29.75,ESE,105,11.0,11.0,77,0.00,,---,0.00,0.00,VWS V14.01,2013-02-11 21:30:00,
2013-02-11 22:40:00,28.8,22.8,29.75,East,81,2.0,9.0,78,0.00,,---,0.00,0.00,VWS V14.01,2013-02-11 21:40:00,
2013-02-11 22:45:00,28.8,22.8,29.74,ESE,103,7.0,15.0,78,0.00,,---,0.00,0.00,VWS V14.01,2013-02-11 21:45:00,
2013-02-11 22:50:00,28.8,22.8,29.74,ENE,69,3.0,7.0,78,0.00,,---,0.00,0.00,VWS V14.01,2013-02-11 21:50:00,
2013-02-11 23:00:00,28.8,22.8,29.73,ENE,78,11.0,14.0,78,0.00,,---,0.00,0.00,VWS V14.01,2013-02-11 22:00:00,
2013-02-11 23:05:00,28.9,22.9,29.73,NE,49,3.0,7.0,78,0.00,,---,0.00,0.00,VWS V14.01,2013-02-11 22:05:00,
2013-02-11 23:10:00,28.9,22.9,29.73,ENE,65,0.0,8.0,78,0.00,,---,0.00,0.00,VWS V14.01,2013-02-11 22:10:00,
2013-02-11 23:15:00,28.9,22.9,29.74,ENE,77,3.0,11.0,78,0.00,,---,0.00,0.00,VWS V14.01,2013-02-11 22:15:00,
2013-02-11 23:25:00,28.9,22.9,29.74,East,83,6.0,10.0,78,0.00,,---,0.00,0.00,VWS V14.01,2013-02-11 22:25:00,
2013-02-11 23:30:00,28.9,22.9,29.74,East,101,2.0,11.0,78,0.00,,---,0.00,0.00,VWS V14.01,2013-02-11 22:30:00,
2013-02-11 23:35:00,28.9,22.9,29.74,ENE,75,3.0,5.0,78,0.00,,---,0.00,0.00,VWS V14.01,2013-02-11 22:35:00,
2013-02-11 23:40:00,29.0,23.0,29.74,East,86,2.0,4.0,78,0.00,,---,0.00,0.00,VWS V14.01,2013-02-11 22:40:00,
2013-02-11 23:45:00,29.0,23.3,29.74,ENE,68,4.0,5.0,79,0.00,,---,0.00,0.00,VWS V14.01,2013-02-11 22:45:00,
2013-02-11 23:50:00,29.0,23.3,29.74,ENE,75,5.0,9.0,79,0.00,,---,0.00,0.00,VWS V14.01,2013-02-11 22:50:00,